Weather in Kinsale

Ireland     51°42′20″N   8°31′19″W
temp.,
°C
wind,
m/s
gust,
m/s
humid.,
%
clouds,
%
prec.,
mm/h
press.,
hPa
HPBL,
m
4 march, thu
thu400:00+3nne119612 0.0 102622
03:00+3nnw119836 0.0 102622
06:00+4n229555 0.0 102668
09:00+4ne2390100 0.0 1026188
12:00+6e2283100 0.0 1027396
15:00+6e3382100 0.0 1026419
18:00+5ese3484100 0.0 1026378
21:00+5ene3577100 0.0 1028313
5 march, fri
fri500:00+4nne347797 0.0 1028154
03:00+5ne358479 0.0 1028206
06:00+6ese699189 0.2 1029535
09:00+6ese6987100 0.2 1030602
12:00+7se7984100 0.3 1031697
15:00+6se5780100 0.1 1031784
18:00+5se4781100 0.1 1031567
21:00+5ese5779100 0.0 1032568
6 march, sat
sat600:00+5se4776100 0.0 1033491
03:00+5sse3578100 0.0 1032224
06:00+5sse4777100 0.0 1032429
09:00+6sse5678100 0.0 1032721
12:00+7s5673100 0.0 1032910
15:00+7s5676100 0.1 1031835
18:00+6s3680100 0.1 1030427
21:00+6s468097 0.0 1030369
7 march, sun
sun700:00+6ssw467798 0.0 1029380
03:00+6ssw3677100 0.0 1028329
06:00+6ssw368199 0.0 1027241
09:00+7ssw3682100 0.0 1027585
12:00+8ssw457997 0.0 1026714
15:00+8ssw568183 0.0 1025616
18:00+6s368973 0.0 1024243
21:00+7s588578 0.0 1024458
8 march, mon
mon800:00+7s6109079 0.0 1024427
03:00+8ssw7129697 0.9 1022503
06:00+8ssw5119898 1.5 1021480
09:00+9ssw51097100 1.4 1021491
12:00+10sw71193100 1.9 1020598
15:00+11sw6985100 0.3 1019941
18:00+8wsw5108786 0.3 1018425
21:00+6wsw4109642 0.0 1019298